This demonstration page uses our WeatherBlox Daily Observations layout. Learn more.

39.29038, -76.61219

Hourly Observations for October 30, 2015

Temp ( °F °C ) Dew Point ( °F °C ) Humidity (%) Winds ( mph kmh ) Pressure ( in mb ) Visibility ( mi km ) Precip ( " mm )
12:54 am 00:54 undefined 58 14.4 38 3.3 48 48 undefined N/A 29.83 1010 N/A 0 0
1:54 am 01:54 undefined 57 13.9 38 3.3 49 49 undefined N/A 29.85 1011 N/A 0 0
2:54 am 02:54 undefined 55 12.8 37 2.8 51 51 undefined N/A 29.87 1012 N/A 0 0
3:54 am 03:54 undefined 53 11.7 35 1.7 51 51 undefined N/A 29.89 1012 N/A 0 0
4:54 am 04:54 undefined 52 11.1 32 0 47 47 undefined N/A 29.9 1013 N/A 0 0
5:54 am 05:54 undefined 51 10.6 32 0 48 48 undefined N/A 29.93 1014 N/A 0 0
6:54 am 06:54 undefined 50 10 33 0.6 52 52 undefined N/A 29.96 1015 N/A 0 0
7:54 am 07:54 undefined 48 8.9 33 0.6 56 56 undefined N/A 29.97 1015 N/A 0 0
8:54 am 08:54 undefined 50 10 33 0.6 52 52 undefined N/A 30.01 1016 N/A 0 0
9:54 am 09:54 undefined 51 10.6 34 1.1 52 52 undefined N/A 30.03 1017 N/A 0 0
10:54 am 10:54 undefined 53 11.7 35 1.7 51 51 undefined N/A 30.04 1017 N/A 0 0
11:54 am 11:54 undefined 55 12.8 35 1.7 47 47 undefined N/A 30.04 1017 N/A 0 0
12:54 pm 12:54 undefined 56 13.3 36 2.2 47 47 undefined N/A 30.04 1017 N/A 0 0
1:54 pm 13:54 undefined 57 13.9 36 2.2 45 45 undefined N/A 30.03 1017 N/A 0 0
2:54 pm 14:54 undefined 58 14.4 37 2.8 46 46 undefined N/A 30.02 1017 N/A 0 0
3:54 pm 15:54 undefined 57 13.9 37 2.8 47 47 undefined N/A 30.03 1017 N/A 0 0
4:54 pm 16:54 undefined 56 13.3 37 2.8 49 49 undefined N/A 30.04 1017 N/A 0 0
5:54 pm 17:54 undefined 56 13.3 37 2.8 49 49 undefined N/A 30.07 1018 N/A 0 0
6:54 pm 18:54 undefined 55 12.8 37 2.8 51 51 undefined N/A 30.1 1019 N/A 0 0
7:54 pm 19:54 undefined 53 11.7 37 2.8 55 55 undefined N/A 30.12 1020 N/A 0 0
8:54 pm 20:54 undefined 51 10.6 38 3.3 61 61 undefined N/A 30.13 1020 N/A 0 0
9:54 pm 21:54 undefined 50 10 38 3.3 63 63 undefined N/A 30.14 1021 N/A 0 0
10:54 pm 22:54 undefined 50 10 38 3.3 63 63 undefined N/A 30.13 1020 N/A 0 0
11:54 pm 23:54 undefined 50 10 37 2.8 61 61 undefined N/A 30.1 1019 N/A 0 0

Powered by AerisWeather